Regional Weather Roundup
Issued by NWS

Home | Current Version | Previous Version | Graphics & Text | Print | Product List | Glossary Off
Versions: 1 2 3 4 5 6 7 8 9 10 11 12 13 14 15 16 17 18 19 20 21 22 23 24 25 26 27 28 29 30 31 32 33 34 35 36 37 38 39 40 41 42 43 44 45 46 47 48 49 50

199
ASUS43 KMKX 120059
RWRWI

WISCONSIN REGIONAL WEATHER ROUNDUP
NATIONAL WEATHER SERVICE MILWAUKEE/SULLIVAN WI
700 PM CST MON DEC 11 2017

NOTE: "FAIR" INDICATES FEW OR NO CLOUDS BELOW 12,000 FEET WITH NO
SIGNIFICANT WEATHER AND/OR OBSTRUCTIONS TO VISIBILITY.

WIZ001-002-006>008-014>016-023>028-120200-
NORTHWEST WISCONSIN

CITY           SKY/WX    TMP DP  RH WIND       PRES   REMARKS
SUPERIOR ARPT  PTCLDY    17   8  67 NW12      30.11R WCI   5
ASHLAND        CLOUDY    18   9  68 NW13      30.07R WCI   5
HAYWARD        CLOUDY    19   9  65 N7        30.03R WCI  10
SIREN          CLEAR     20  10  65 N10       30.09R WCI   9
CUMBERLAND     PTCLDY    19  10  68 N17G26    30.03R WCI   4
RICE LAKE      CLEAR     21  11  65 NW10G23   30.05R WCI  10
CHETEK         PTCLDY    21  12  66 N8G20     30.03R WCI  12
LADYSMITH      MOCLDY    22  11  63 NW20G33   29.99R WCI   7
EAU CLAIRE     CLOUDY    23  11  60 NW21G36   30.03R WCI   8
MENOMONIE      CLOUDY    26  15  64 NW13G21   30.04R WCI  14
NEW RICHMOND   MOCLDY    23  13  67 NW17      30.08R WCI   9
OSCEOLA        CLOUDY    23  13  64 NW14      30.13R WCI  11
$$

WIZ003>005-009-010-017-018-120200-
NORTH CENTRAL WISCONSIN

CITY           SKY/WX    TMP DP  RH WIND       PRES   REMARKS
MANITOWISH WTR LGT SNOW  17  15  92 NW12G20   29.89R WCI   4
ARBOR VITAE    LGT SNOW  19  15  84 N16G24    29.88R WCI   5
WOODRUFF       LGT SNOW  19  15  84 N16G24    29.88R WCI   5
RHINELANDER    CLOUDY    20  12  71 NW7       29.87R WCI  11
EAGLE RIVER    LGT SNOW  19  11  73 N16G26    29.84R WCI   4
LAND O LAKES   CLOUDY    19  11  72 N17G28    29.86R WCI   3
PHILLIPS       CLOUDY    19  13  79 NW9       29.92R WCI   7
TOMAHAWK       CLOUDY    19  13  75 NW12G23   29.89R WCI   7
MEDFORD        LGT SNOW  21  13  70 NW24      29.90R WCI   4
MERRILL        FLURRIES  22  16  76 N18G24    29.88R WCI   8
$$

WIZ029-030-035-036-043>047-120200-
CENTRAL WISCONSIN

CITY           SKY/WX    TMP DP  RH WIND       PRES   REMARKS
WAUSAU         CLOUDY    23  12  62 N17G33    29.87R WCI   9
MOSINEE        FLURRIES  25  16  68 N24G33    29.89R WCI   9
MARSHFIELD     CLOUDY    24  15  68 N25G36    29.89R WCI   8
STEVENS POINT  CLOUDY    26  19  75 N16G23    29.85R WCI  14
WAUPACA        CLOUDY    31  22  70 NW22G30   29.84R WCI  18
WAUTOMA        CLOUDY    30  23  75 NW12G24   29.86R WCI  20
WISC RAPIDS    CLOUDY    28  19  69 N17G30    29.89R WCI  16
CAMP DOUGLAS   CLOUDY    30  21  69 NW17G28   29.89R WCI  18
$$

WIZ011>013-019>022-031-037>040-048>050-120200-
NORTHEAST WISCONSIN

CITY           SKY/WX    TMP DP  RH WIND       PRES   REMARKS
ANTIGO         FLURRIES  21  15  76 N18G29    29.83R WCI   6
SHAWANO        CLOUDY    30  21  68 NW17G28   29.81R WCI  19
OCONTO         CLOUDY    27  23  86 NW5       29.80R WCI  21
STURGEON BAY   FLURRIES  28  23  81 NW20G28   29.78S WCI  15
GREEN BAY      CLOUDY    28  24  85 NW12      29.81R WCI  18
MANITOWOC      CLOUDY    27  23  85 NW14      29.80R WCI  16
APPLETON       CLOUDY    28  21  74 NW16G22   29.80R WCI  17
CLINTONVILLE   CLOUDY    28  21  74 NW12      29.83R WCI  18
OSHKOSH        CLOUDY    29  23  78 NW13      29.82R WCI  19
$$

WIZ032>034-041-042-053>061-120200-
SOUTHWEST WISCONSIN

CITY           SKY/WX    TMP DP  RH WIND       PRES   REMARKS
LA CROSSE      CLOUDY    33  21  61 N23G32    29.96R WCI  21
SPARTA         CLOUDY    31  22  70 NW16G24   29.93R WCI  20
VIROQUA        CLOUDY    30  26  83 N23       29.89R WCI  17
BOSCOBEL       CLOUDY    34  25  69 N9G21     29.93R WCI  27
PRAIRIE DU CHI CLOUDY    34  26  74 NW14G21   29.92R WCI  24
PLATTEVILLE    CLOUDY    32  30  92 N21G30    29.86R WCI  20
$$

WIZ056-057-062-063-064-067-068-120200-
SOUTH CENTRAL WISCONSIN

CITY           SKY/WX    TMP DP  RH WIND       PRES   REMARKS
REEDSBURG      CLOUDY    30  25  81 NW18G24   29.87R WCI  18
BARABOO/DELLS  CLOUDY    30  23  77 N15G28    29.86R WCI  19
LONE ROCK      NOT AVBL
MINERAL POINT  CLOUDY    32  32 100 NW21      29.85R WCI  20
MADISON        CLOUDY    31  25  78 N15G28    29.84R WCI  20
MIDDLETON      CLOUDY    33  28  84 NW16      29.84R WCI  22
WATERTOWN      CLOUDY    31  27  86 NW10G16   29.80R WCI  22
MONROE         CLOUDY    32  28  86 NW9G18    29.81R WCI  24
JANESVILLE     CLOUDY    34  28  80 NW14      29.81R WCI  24
$$

WIZ051-052-058>065-066-070>072-120200-
SOUTHEAST WISCONSIN

CITY           SKY/WX    TMP DP  RH WIND       PRES   REMARKS
MILWAUKEE      CLOUDY    33  26  75 NW15G22   29.78R WCI  23
WAUKESHA       CLOUDY    28  25  86 NW12G21   29.79R WCI  18
MILWAUKEE/TIMM CLOUDY    30  23  74 NW15      29.79R WCI  19
RACINE         CLOUDY    32  26  78 NW9       29.78R WCI  24
BURLINGTON     CLOUDY    42  41  95 NW12      29.77R
KENOSHA        CLOUDY    32  26  78 NW9       29.77R WCI  24
FOND DU LAC    CLOUDY    30  22  72 NW14      29.83R WCI  19
SHEBOYGAN      CLOUDY    28  23  81 NW15G23   29.80R WCI  16
WEST BEND      CLOUDY    30  27  86 NW13G18   29.79R WCI  20
JUNEAU         CLOUDY    29  24  82 NW14G21   29.82R WCI  19
$$

LSZ147-162-120200-
LAKE SUPERIOR

STATION/POSITION TIME  TEMP    WIND        PRES    WAVE
                       AIR SEA DIR/SP/G            HT/PER
                 (UTC) (F)     (DEG/KT/KT) (MB)    (FT/S)
DEVILS ISLAND    0000   20     320/ 25/ 32 1018.6R
SAXON HARBOR     0030   23                 1016.6R
$$

LMZ867-665-643>646-120200-
LAKE MICHIGAN

STATION/POSITION TIME  TEMP    WIND        PRES    WAVE
                       AIR SEA DIR/SP/G            HT/PER
                 (UTC) (F)     (DEG/KT/KT) (MB)    (FT/S)
NORTHPORT PIER   0040   29     310/ 23/ 31 1007.8R
KEWAUNEE LAKESHO 0030   27     310/  8/ 11 1007.7R
SHEBOYGAN LAKESH 0000   30     330/ 15/ 19 1008.9R
PORT WASHINGTON  0040   31     330/  9/ 16 1009.8R
MILWAUKEE LAKESH 0030   33     320/  8/ 13   N/A
KENOSHA   LAKESH 0000   32     300/  7/  9 1008.1
$$

TC  - TEMPERATURE IN CELSIUS
VSB - VISIBILITY IN STATUTE MILES
WCI - WIND CHILL INDEX
HX  - HEAT INDEX





USA.gov is the U.S. government's official web portal to all federal, state and local government web resources and services.